Regional Weather Roundup
Issued by NWS State College, PA

Home | Current Version | Previous Version | Text Only | Print | Product List | Glossary On
Versions: 1 2 3 4 5 6 7 8 9 10 11 12 13 14 15 16 17 18 19 20 21 22 23 24 25 26 27 28 29 30 31 32 33 34 35 36 37 38 39 40 41 42 43 44 45 46 47 48 49 50
000
ASUS41 KCTP 072310
RWRCTP

REGIONAL WEATHER ROUNDUP
NATIONAL WEATHER SERVICE STATE COLLEGE PA
600 PM EST WED DEC 07 2016

Note: "fair" indicates few or no clouds below 12,000 feet with no
significant weather and/or obstructions to visibility.

* = STATION THAT DOES NOT REPORT PRECIPITATION /E.G. RAIN...SNOW...ETC/
    THUNDER OR FOG.

PAZ002>004-007>009-013>016-020>023-029>032-080000-
WESTERN PENNSYLVANIA

CITY           SKY/WX    TMP DP  RH WIND       PRES   REMARKS
ERIE           CLEAR     35  24  64 SW6       30.04R
MEADVILLE      CLEAR     33  21  61 SW7       30.03R
FRANKLIN*        N/A     32  18  55 SW8       30.04R
NEW CASTLE     NOT AVBL
BEAVER COUNTY  NOT AVBL
BUTLER*        CLOUDY    36  21  55 SW8       30.08S
PITTSBURGH INT CLOUDY    38  22  52 SW5       30.06S
PITTSBURGH     CLOUDY    38  20  48 W7        30.06S
INDIANA*       CLOUDY    36  23  60 W8        30.07S
LATROBE        MOCLDY    34  23  64 W6        30.07S
WASHINGTON CO* CLOUDY    37  23  56 W3        30.08R
$$

PAZ004>006-010>012-017>019-024>028-033>037-041-042-045-046-049>053-080000-
CENTRAL PENNSYLVANIA

CITY           SKY/WX    TMP DP  RH WIND       PRES   REMARKS
BRADFORD       CLEAR     32  23  69 SW3       29.98R
DUBOIS         CLOUDY    34  19  54 W8        30.00S
CLEARFIELD     CLOUDY    37  24  59 SW8       30.02R
JOHNSTOWN      CLEAR     32  20  61 W7        30.00R
ALTOONA        CLEAR     35  19  52 W9        30.04R
STATE COLLEGE  PTCLDY    37  23  56 W7        30.03R
WILLIAMSPORT   CLOUDY    39  32  76 E3        30.02S
SELINSGROVE    CLOUDY    40  31  70 CALM      30.04R
FT INDIANTOWN  CLOUDY    40  33  78 N2        30.03S
CAPITAL CITY   PTCLDY    42  32  67 SW3       30.04S
HARRISBURG     MOCLDY    40  36  86 CALM      30.04R
YORK           PTCLDY    35  33  92 CALM      30.04R
$$

PAZ038>040-043-044-047-048-054-055-060>062-067>071-080000-
EASTERN PENNSYLVANIA

CITY           SKY/WX    TMP DP  RH WIND       PRES   REMARKS
SCRANTON       CLOUDY    40  31  70 SW5       30.00S
MOUNT POCONO   CLEAR     33  29  85 NW3       29.97F
ALLENTOWN      PTCLDY    42  29  59 W5        30.04R
QUAKERTOWN*    CLEAR     41  30  65 CALM      30.04R
READING        PTCLDY    42  29  59 W3        30.04R
LANCASTER      PTCLDY    41  30  65 CALM      30.04S
COATESVILLE    CLEAR     39  28  65 NW5       30.06R
POTTSTOWN      CLEAR     40  30  67 CALM      30.06R
BLUE BELL      CLEAR     36  36 100 CALM      30.04R
DOYLESTOWN     PTCLDY    40  37  89 CALM      30.03R
WILLOW GROVE   NOT AVBL
NORTH PHILA    CLEAR     40  36  86 CALM      30.07R
PHILADELPHIA   PTCLDY    45  34  65 W7        30.06R
$$




USA.gov is the U.S. government's official web portal to all federal, state and local government web resources and services.